Regional Weather Roundup
Issued by NWS

Home | Current Version | Previous Version | Graphics & Text | Print | Product List | Glossary On
Versions: 1 2 3 4 5 6 7 8 9 10 11 12 13 14 15 16 17 18 19 20 21 22 23 24 25 26 27 28 29 30 31 32 33 34 35 36 37 38 39 40 41 42 43 44 45 46 47 48 49 50
000
ASUS45 KCYS 251210
RWRWY

WYOMING REGIONAL WEATHER ROUNDUP
NATIONAL WEATHER SERVICE CHEYENNE WY
600 AM MDT FRI MAY 25 2018

NOTE:  "FAIR" INDICATES FEW OR NO CLOUDS BELOW 12,000 FEET
WITH NO SIGNIFICANT WEATHER AND/OR OBSTRUCTIONS TO VISIBILITY.

WYZ001-251300-
YELLOWSTONE NATIONAL PARK

CITY           SKY/WX    TMP DP  RH WIND       PRES   REMARKS
LK YELLOWSTONE NOT AVBL
W YELLOWSTONE  NOT AVBL

$$
WYZ002>013-054>058-071-098>099-251300-
NORTHERN WYOMING

CITY           SKY/WX    TMP DP  RH WIND       PRES   REMARKS
JACKSON        MOCLDY    39  38  96 N5        30.21S
CODY           FAIR      56  44  64 SW6       30.08
GREYBULL       FAIR      53  50  89 E3        30.02S
6HR MIN TEMP:  52; 6HR MAX TEMP:  69;

WORLAND        FAIR      51  49  92 S8        30.04R
6HR MIN TEMP:  50; 6HR MAX TEMP:  58;

SHERIDAN       FAIR      52  46  80 CALM      30.01R
6HR MIN TEMP:  50; 6HR MAX TEMP:  60;

BUFFALO        FAIR      54  44  69 W5        30.06R
6HR MIN TEMP:  51; 6HR MAX TEMP:  60;

GILLETTE       FAIR      55  46  71 CALM      30.02R
6HR MIN TEMP:  48; 6HR MAX TEMP:  56;

NEWCASTLE      FAIR      52  45  76 N12       30.02R

$$
WYZ014>020-022>026-101>103-251300-
CENTRAL WYOMING

CITY           SKY/WX    TMP DP  RH WIND       PRES   REMARKS
BIG PINEY      FAIR      37  35  92 E6        30.22S WCI  32
6HR MIN TEMP:  37; 6HR MAX TEMP:  48;

PINEDALE       FAIR      34  34 100 NW6       30.24R WCI  29
DUBOIS         FAIR      39  36  87 W12       30.20S WCI  32
LANDER         FAIR      53  39  59 W5        30.10F
6HR MIN TEMP:  48; 6HR MAX TEMP:  63;

RIVERTON       FAIR      51  43  74 NW13      30.12R
6HR MIN TEMP:  50; 6HR MAX TEMP:  58;

CASPER         FAIR      48  44  86 SW8       30.11R
6HR MIN TEMP:  46; 6HR MAX TEMP:  54;

DOUGLAS        FAIR      47  46  97 N5        30.08S
6HR MIN TEMP:  45; 6HR MAX TEMP:  53;


$$
WYZ021-027>030-104>119-251300-
SOUTHERN WYOMING

CITY           SKY/WX    TMP DP  RH WIND       PRES   REMARKS
EVANSTON       FAIR      50  40  68 NE6       30.18F
6HR MIN TEMP:  50; 6HR MAX TEMP:  56;

FORT BRIDGER   FAIR      49  40  72 E6        30.22S
ROCK SPRINGS   FAIR      49  38  65 NE3       30.19S
6HR MIN TEMP:  47; 6HR MAX TEMP:  55;

DIXON          FAIR      44  34  68 E5        30.23R
RAWLINS        FAIR      40  34  79 CALM      30.20S
6HR MIN TEMP:  39; 6HR MAX TEMP:  51;

SARATOGA       FAIR      43  32  65 SE6       30.23S
LARAMIE        FAIR      41  33  73 S9        30.22S
6HR MIN TEMP:  38; 6HR MAX TEMP:  47;

CHEYENNE       FAIR      51  40  65 W9        30.15R
6HR MIN TEMP:  50; 6HR MAX TEMP:  55;

TORRINGTON     FAIR      52  51  97 NW5       30.02R
6HR MIN TEMP:  49; 6HR MAX TEMP:  60;

PINE BLUFFS    FAIR      45  43  93 CALM      30.11R

$$



USA.gov is the U.S. government's official web portal to all federal, state and local government web resources and services.